This demonstration page uses our WeatherBlox Daily Observations layout. Learn more.

Hourly Observations for February 4, 2017

Temp ( °F °C ) Dew Point ( °F °C ) Humidity (%) Winds ( mph kmh ) Pressure ( in mb ) Visibility ( mi km ) Precip ( " mm )
12:15 am 00:15 Cloudy 30 -1 14 -10 51 51 NNW 10 17 30.39 1029 10 16.09344 0 0
12:35 am 00:35 Mostly Cloudy 30 -1 14 -10 51 51 NNW 15 24 30.39 1029 10 16.09344 0 0
12:55 am 00:55 Cloudy 28 -2 12 -11 51 51 NNW 12 19 30.39 1029 10 16.09344 0 0
1:15 am 01:15 Mostly Cloudy 28 -2 12 -11 51 51 N 5 7 30.39 1029 10 16.09344 0 0
1:35 am 01:35 Partly Cloudy 28 -2 12 -11 51 51 NNW 9 15 30.42 1030 10 16.09344 0 0
1:55 am 01:55 Partly Cloudy 28 -2 12 -11 51 51 NNW 6 9 30.42 1030 10 16.09344 0 0
2:15 am 02:15 Partly Cloudy 27 -3 10 -12 50 50 NNW 5 7 30.42 1030 10 16.09344 0 0
2:35 am 02:35 Partly Cloudy 28 -2 10 -12 47 47 NNW 5 7 30.42 1030 10 16.09344 0 0
2:55 am 02:55 Partly Cloudy 28 -2 10 -12 47 47 NNW 8 13 30.42 1030 10 16.09344 0 0
3:15 am 03:15 Partly Cloudy 27 -3 12 -11 54 54 NW 9 15 30.42 1030 10 16.09344 0 0
3:35 am 03:35 Clear 25 -4 12 -11 59 59 NW 8 13 30.42 1030 10 16.09344 0 0
3:55 am 03:55 Clear 23 -5 12 -11 63 63 NW 7 11 30.42 1030 10 16.09344 0 0
4:15 am 04:15 Clear 27 -3 12 -11 54 54 NNW 6 9 30.45 1031 10 16.09344 0 0
4:35 am 04:35 Clear 27 -3 12 -11 54 54 N 6 9 30.45 1031 10 16.09344 0 0
4:55 am 04:55 Clear 27 -3 12 -11 54 54 N 5 7 30.45 1031 10 16.09344 0 0
5:15 am 05:15 Clear 23 -5 12 -11 63 63 NW 3 6 30.48 1032 10 16.09344 0 0
5:35 am 05:35 Clear 23 -5 14 -10 68 68 Calm 30.5 1033 10 16.09344 0 0
5:55 am 05:55 Clear 23 -5 14 -10 68 68 Calm 30.5 1033 10 16.09344 0 0
6:15 am 06:15 Clear 23 -5 12 -11 63 63 NNW 3 6 30.5 1033 10 16.09344 0 0
6:35 am 06:35 Clear 19 -7 14 -10 79 79 WNW 3 6 30.5 1033 10 16.09344 0 0
6:55 am 06:55 Clear 21 -6 14 -10 74 74 Calm 30.53 1034 10 16.09344 0 0
7:15 am 07:15 Sunny 21 -6 14 -10 74 74 Calm 30.53 1034 10 16.09344 0 0
7:35 am 07:35 Sunny 19 -7 16 -9 86 86 WNW 6 9 30.56 1035 10 16.09344 0 0
7:55 am 07:55 Sunny 21 -6 16 -9 80 80 W 5 7 30.56 1035 10 16.09344 0 0
8:15 am 08:15 Sunny 25 -4 18 -8 74 74 W 6 9 30.53 1034 10 16.09344 0 0
8:35 am 08:35 Sunny 27 -3 16 -9 64 64 W 8 13 30.53 1034 10 16.09344 0 0
8:55 am 08:55 Sunny 28 -2 16 -9 59 59 WNW 12 19 30.53 1034 10 16.09344 0 0
9:15 am 09:15 Sunny 30 -1 14 -10 51 51 NW 13 20 30.53 1034 10 16.09344 0 0
9:35 am 09:35 Sunny 30 -1 12 -11 47 47 WNW 14 22 30.53 1034 10 16.09344 0 0
9:55 am 09:55 Sunny 30 -1 12 -11 47 47 WNW 9 15 30.53 1034 10 16.09344 0 0
10:15 am 10:15 Sunny 32 0 12 -11 44 44 undefined N/A 30.53 1034 10 16.09344 0 0
10:35 am 10:35 Sunny 32 0 12 -11 44 44 WNW 17 28 30.53 1034 10 16.09344 0 0
10:55 am 10:55 Sunny 32 0 12 -11 44 44 WNW 12 19 30.53 1034 10 16.09344 0 0
11:15 am 11:15 Sunny 34 1 12 -11 41 41 undefined N/A 30.53 1034 10 16.09344 0 0
11:35 am 11:35 Sunny 34 1 10 -12 38 38 WNW 13 20 30.53 1034 10 16.09344 0 0
11:55 am 11:55 Sunny 34 1 9 -13 35 35 undefined N/A 30.5 1033 10 16.09344 0 0
12:15 pm 12:15 Sunny 36 2 9 -13 32 32 NW 15 24 30.48 1032 10 16.09344 0 0
12:35 pm 12:35 Sunny 36 2 9 -13 32 32 undefined N/A 30.48 1032 10 16.09344 0 0
12:55 pm 12:55 Sunny 36 2 9 -13 32 32 undefined N/A 30.45 1031 10 16.09344 0 0
1:15 pm 13:15 Sunny 37 3 9 -13 30 30 undefined N/A 30.45 1031 10 16.09344 0 0
1:35 pm 13:35 Sunny 37 3 9 -13 30 30 undefined N/A 30.45 1031 10 16.09344 0 0
1:55 pm 13:55 Sunny 37 3 9 -13 30 30 undefined N/A 30.42 1030 10 16.09344 0 0
2:15 pm 14:15 Sunny 39 4 9 -13 28 28 WNW 10 17 30.42 1030 10 16.09344 0 0
2:35 pm 14:35 Sunny 39 4 10 -12 30 30 WNW 10 17 30.42 1030 10 16.09344 0 0
2:55 pm 14:55 Sunny 39 4 9 -13 28 28 undefined N/A 30.42 1030 10 16.09344 0 0
3:15 pm 15:15 Sunny 39 4 9 -13 28 28 undefined N/A 30.42 1030 10 16.09344 0 0
3:35 pm 15:35 Sunny 41 5 10 -12 28 28 undefined N/A 30.42 1030 10 16.09344 0 0
3:55 pm 15:55 Sunny 39 4 9 -13 28 28 undefined N/A 30.42 1030 10 16.09344 0 0
4:15 pm 16:15 Sunny 39 4 9 -13 28 28 undefined N/A 30.39 1029 10 16.09344 0 0
4:35 pm 16:35 Sunny 39 4 9 -13 28 28 undefined N/A 30.39 1029 10 16.09344 0 0
4:55 pm 16:55 Sunny 37 3 9 -13 30 30 undefined N/A 30.39 1029 10 16.09344 0 0
5:15 pm 17:15 Sunny 37 3 9 -13 30 30 undefined N/A 30.39 1029 10 16.09344 0 0
5:35 pm 17:35 Sunny 37 3 9 -13 30 30 undefined N/A 30.39 1029 10 16.09344 0 0
5:55 pm 17:55 Clear 37 3 9 -13 30 30 undefined N/A 30.39 1029 10 16.09344 0 0
6:15 pm 18:15 Clear 37 3 9 -13 30 30 undefined N/A 30.36 1028 10 16.09344 0 0
6:35 pm 18:35 Clear 36 2 10 -12 35 35 undefined N/A 30.36 1028 10 16.09344 0 0
6:55 pm 18:55 Clear 36 2 10 -12 35 35 undefined N/A 30.36 1028 10 16.09344 0 0
7:15 pm 19:15 Clear 36 2 10 -12 35 35 undefined N/A 30.36 1028 10 16.09344 0 0
7:35 pm 19:35 Clear 34 1 12 -11 41 41 undefined N/A 30.36 1028 10 16.09344 0 0
7:55 pm 19:55 Clear 34 1 12 -11 41 41 undefined N/A 30.36 1028 10 16.09344 0 0
8:15 pm 20:15 Clear 34 1 12 -11 41 41 undefined N/A 30.36 1028 10 16.09344 0 0
8:35 pm 20:35 Clear 34 1 12 -11 41 41 undefined N/A 30.36 1028 10 16.09344 0 0
8:55 pm 20:55 Clear 34 1 12 -11 41 41 undefined N/A 30.36 1028 10 16.09344 0 0
9:15 pm 21:15 Clear 34 1 12 -11 41 41 undefined N/A 30.33 1027 10 16.09344 0 0
9:35 pm 21:35 Clear 32 0 12 -11 44 44 undefined N/A 30.33 1027 10 16.09344 0 0
9:55 pm 21:55 Clear 32 0 10 -12 40 40 undefined N/A 30.33 1027 10 16.09344 0 0
10:15 pm 22:15 Clear 32 0 12 -11 44 44 undefined N/A 30.3 1026 10 16.09344 0 0
10:35 pm 22:35 Clear 32 0 12 -11 44 44 undefined N/A 30.3 1026 10 16.09344 0 0
10:55 pm 22:55 Clear 32 0 12 -11 44 44 undefined N/A 30.3 1026 10 16.09344 0 0
11:15 pm 23:15 Clear 32 0 12 -11 44 44 undefined N/A 30.3 1026 10 16.09344 0 0
11:35 pm 23:35 Clear 32 0 12 -11 44 44 undefined N/A 30.3 1026 10 16.09344 0 0
11:55 pm 23:55 Clear 34 1 12 -11 41 41 undefined N/A 30.27 1025 10 16.09344 0 0

Powered by AerisWeather